Home   Weather   Santarém   Past weeks

Flag for Brazil Past Weather in Santarém, Pará, Brazil — Yesterday and Last 2 Weeks

Now
73 °F

Passing clouds.


Feels Like: 68 °F
Forecast: 73 / 91 °F
Wind: No wind

Location: Santarem-Aeroporto

Current Time: Dec 5, 2016 at 7:40:32 am

Latest Report: Dec 5, 2016 at 7:00 am


Visibility: N/A

Pressure: 29.83 "Hg

Humidity: 100%

Dew Point: 73 °F

Location of SantarémLocation

Past Weather in Santarém — Graph

°F

Santarém Temperature Yesterday

Maximum temperature yesterday: 91 °F (at 3:00 pm)
Minimum temperature yesterday: 72 °F (at 11:00 pm)
Average temperature yesterday: 83 °F

High & Low Weather Summary for the Past Weeks

 TemperatureHumidityPressure
High93 °F (Nov 29, 4:00 pm)100% (Nov 20, 9:00 am)29.92 "Hg (Nov 20, 9:00 am)
Low72 °F (Dec 4, 11:00 pm)22% (Nov 20, 6:00 am)29.68 "Hg (Nov 21, 5:00 pm)
Average83 °F76%29.80 "Hg
* Reported Nov 20 6:00 am — Dec 5 6:00 am, Santarém, Weather by CustomWeather, © 2016

Note: Actual official high and low records may vary slightly from our data, if they occured in-between our weather recording intervals... More about our weather records

Advertising

Santarém Weather History for the Previous 24 Hours

Scroll right to see more
 ConditionsComfort  
Time TempWeatherWind HumidityBarometerVisibility
6:00 am
Mon, Dec 5
73 °FPassing clouds.1 mph100%29.83 "HgN/A
5:00 am75 °FPassing clouds.1 mph94%29.80 "HgN/A
4:00 am73 °FPassing clouds.No wind100%29.80 "HgN/A
3:00 am73 °FPassing clouds.No wind94%29.80 "HgN/A
2:00 am73 °FPassing clouds.2 mph94%29.80 "HgN/A
1:00 am73 °FThunderstorms. Passing clouds.2 mph94%29.83 "HgN/A
12:00 am72 °FThunderstorms. Passing clouds.6 mph100%29.86 "HgN/A
11:00 pm
Sun, Dec 4
72 °FThunderstorms. Passing clouds.10 mph94%29.89 "Hg2 mi
10:00 pm75 °FThunderstorms. Passing clouds.12 mph94%29.89 "Hg1 mi
9:00 pm81 °FPassing clouds.3 mph84%29.83 "HgN/A
8:00 pm81 °FPassing clouds.3 mph84%29.80 "HgN/A
7:00 pm82 °FPassing clouds.No wind74%29.77 "HgN/A
6:00 pm90 °FPassing clouds.1 mph55%29.74 "HgN/A
5:00 pm90 °FPassing clouds.5 mph55%29.74 "HgN/A
4:00 pm91 °FPassing clouds.7 mph49%29.74 "HgN/A
3:00 pm91 °FPassing clouds.10 mph52%29.77 "HgN/A
2:00 pm90 °FPassing clouds.3 mph55%29.80 "HgN/A
1:00 pm88 °FPassing clouds.No wind59%29.83 "HgN/A
12:00 pm88 °FClear.8 mph55%29.86 "Hg3 mi
11:00 am86 °FClear.8 mph62%29.89 "Hg3 mi
10:00 am86 °FClear.12 mph62%29.89 "Hg3 mi
9:00 am84 °FClear.12 mph74%29.89 "Hg3 mi
8:00 am82 °FPassing clouds.9 mph79%29.86 "Hg4 mi
7:00 am81 °FPassing clouds.5 mph84%29.83 "HgN/A
Weather by CustomWeather, © 2016

See weather overviewHow to use our weather pages